Location: Clanezzo
(45.7500°N, 9.6000°E)
Time: 14:10:51
(UTC+00:00)

Cosmos 1378 - Pass Details

Date: 12 May 2021
Orbit: 490 x 499 km, 82.5° (Epoch: 19 June)

Event Time Altitude Azimuth Distance (km) Brightness Sun altitude
Exits shadow 23:13:25 42° 18° (NNE) 724 4.3 -25.9°
Drops below altitude 10° 23:15:58 10° 11° (NNE) 1,704 6.8 -25.9°
Sets 23:18:06 0° 11° (N) 2,593 8.0 -25.9°
